Powrót do katalogu

CS 3A

AktywnyŁącznośćGEO
NORAD 18877·PAYLOAD·🇯🇵 Japan

Wystrzelony Feb 19, 1988 z Tanegashima Space Center

Loading…

TLE

ŚwieżeSource: Space-Track

Epoka: Sep 12, 2026, 01:51 UTC

1 18877U 88012A   26255.07724074 -.00000214  00000-0  00000-0 0  9999
2 18877  15.2044 351.0497 0008204 323.5993  48.8665  0.98137516128521

Śledź CS 3A w czasie rzeczywistym z AllMySat

Download on the App Store